星链-30265 (STARLINK-30265 )

导读

STARLINK-30265是美国太空探索技术公司SpaceX星链互联网卫星星座的一员,于2023年8月17日发射入轨。星链计划旨在构建全球卫星互联网,该卫星承担低轨宽带通信服务,面向全球提供覆盖偏远地区的高速互联网接入,目前已在轨道运行超两年,是星链规模持续扩张过程中的组网卫星。

基本信息
目录编号:
57646
目录名称:
STARLINK-30265
国际标识:
2023-122Q
轨道中心:
EARTH
卫星名称:
星链-30265
卫星全名:
星链-30265 (STARLINK-30265 )
卫星状态:
在轨 (已飞行1114 天)
发射日期:
2023-08-17 UTC
国别 :
美国 (US)
星等 :
--
轨道信息
数据来源 国际轨道数据 AOE轨道数据
星历时间 2026-09-04T11:29:13+0800
7小时前
查看轨道信息
2026-09-03T23:00:00+0800
20小时前
查看轨道信息
半长轴 6861.189km 6861.175km
偏心率 0.0000747 0.0001102
轨道倾角 43.002° 43.001°
近地点辐角 281.511° 222.499°
升交点赤经 164.326° 167.265°
平近点角 78.565° 153.021°
近地点 482.539km 482.281km
远地点 483.565km 483.795km
周期 94.267分钟 94.267分钟
每日圈数 15.275792 15.27584
详细信息
固有亮度:
5
最大亮度:
0.3
卫星平台:
Starlink v2.0 mini
覆盖范围:
全球
运营商:
太空探索技术公司
运营商所在国:
美国
制造商(研发单位):
太空探索技术公司
制造商所在国:
美国
使用方式:
暂无
卫星简介
星链(Starlink)计划是由太空探索技术公司(SpaceX)提出的一个巨型低轨卫星互联网星座项目,计划在2019年至2024年间在太空搭建由约1.2万颗卫星组成的“星链”网络,其中1584颗将部署在地球上空550千米处的近地轨道,并从2020年开始工作。该卫星仍在工作。
2D轨道图
3D轨道图
轨道高度分析图
轨道倾角分析图
轨道综合分析图
查看轨道综合分析图
交会数据列表
事件ID 空间交会对象 最接近时刻(TCA) 交会距离 交会风险概率(CRP) 交会风险指数(CRI) 操作
CDM_260903-212605-764606-400821
2026-09-03T
21:26:11+0000
0.250 km
中距离
4.940953E-4 高风险 0.89
CDM_260905-044205-764606-752021
2026-09-05T
04:42:59+0000
0.506 km
远距离
1.556365E-4 高风险 0.79
CDM_260904-135405-764606-400821
2026-09-04T
13:54:48+0000
0.550 km
远距离
1.084631E-4 高风险 0.76
CDM_260905-061705-764606-752021
2026-09-05T
06:17:09+0000
1.252 km
极远距离
9.233324E-6 低风险 0.54
CDM_260903-195205-764606-400821
2026-09-03T
19:52:02+0000
1.465 km
极远距离
4.619045E-6 低风险 0.48
CDM_260904-152805-764606-400821
2026-09-04T
15:28:57+0000
1.659 km
极远距离
3.138514E-6 低风险 0.45
CDM_260904-031905-764606-186922
OBJECT A (61869)
2026-09-04T
03:19:06+0000
1.957 km
极远距离
2.925703E-6 低风险 0.44
CDM_260905-182205-764606-433921
2026-09-05T
18:22:24+0000
1.427 km
极远距离
2.55923E-6 低风险 0.43
CDM_260903-230005-764606-400821
2026-09-03T
23:00:20+0000
1.967 km
极远距离
1.968581E-6 低风险 0.41
CDM_260905-030805-764606-752021
2026-09-05T
03:08:50+0000
2.239 km
极远距离
1.694136E-6 低风险 0.4